Regional Weather Roundup
Issued by NWS

Home | Current Version | Previous Version | Graphics & Text | Print | Product List | Glossary On
Versions: 1 2 3 4 5 6 7 8 9 10 11 12 13 14 15 16 17 18 19 20 21 22 23 24 25 26 27 28 29 30 31 32 33 34 35 36 37 38 39 40 41 42 43 44 45 46 47 48 49 50
000
ASUS45 KCYS 041710
RWRWY

WYOMING REGIONAL WEATHER ROUNDUP
NATIONAL WEATHER SERVICE CHEYENNE WY
1100 AM MDT MON MAY 04 2015

NOTE:  "FAIR" INDICATES FEW OR NO CLOUDS BELOW 12,000 FEET
WITH NO SIGNIFICANT WEATHER AND/OR OBSTRUCTIONS TO VISIBILITY.

WYZ001-041800-
YELLOWSTONE NATIONAL PARK

CITY           SKY/WX    TMP DP  RH WIND       PRES   REMARKS
LK YELLOWSTONE   N/A     44  34  67 E3        30.14F
W YELLOWSTONE  NOT AVBL

$$
WYZ002>013-054>058-071-098>099-041800-
NORTHERN WYOMING

CITY           SKY/WX    TMP DP  RH WIND       PRES   REMARKS
JACKSON        PTSUNNY   48  41  76 CALM      30.09F
CODY           FAIR      61  41  48 S6        30.01F
GREYBULL       FAIR      65  41  41 S10       29.99F
WORLAND        FAIR      64  43  46 SE8       30.00F
SHERIDAN       FAIR      62  45  53 SE13      30.02S
BUFFALO        FAIR      58  45  62 S13       30.07S
GILLETTE       PTSUNNY   55  40  56 SE22G32   30.08F
HULETT         PTSUNNY   52  45  76 E15       30.15F
NEWCASTLE      FAIR      46  32  57 SE20G26   30.17S

$$
WYZ014>020-022>026-101>103-041800-
CENTRAL WYOMING

CITY           SKY/WX    TMP DP  RH WIND       PRES   REMARKS
BIG PINEY      FAIR      53  37  54 MISG      30.11F
PINEDALE       FAIR      50  37  62 S5        30.12F
DUBOIS         FAIR      54  34  47 E3        30.07F
LANDER         FAIR      58  42  55 E6        30.05S
RIVERTON       FAIR      57  42  57 NW6       30.06F
CASPER         FAIR      55  45  68 CALM      30.07F
DOUGLAS        FAIR      55  42  61 SE24G31   30.10S

$$
WYZ021-027>030-104>119-041800-
SOUTHERN WYOMING

CITY           SKY/WX    TMP DP  RH WIND       PRES   REMARKS
EVANSTON       FAIR      57  39  51 VRB5      30.08F
KEMMERER       FAIR      54  41  62 CALM      30.12S
FORT BRIDGER   SUNNY     55  41  58 CALM      30.12F
ROCK SPRINGS   FAIR      56  38  50 VRB5      30.09F
DIXON          FAIR      60  40  47 W5        30.11F
RAWLINS        FAIR      57  40  52 CALM      30.10F
SARATOGA       FAIR      54  41  62 CALM      30.12F
LARAMIE        CLOUDY    48  41  76 SE17      30.13S
CHEYENNE       CLOUDY    51  40  65 S13       30.15S
TORRINGTON     CLOUDY    50  37  61 E13       30.15F
PINE BLUFFS    CLOUDY    46  37  71 SE10      30.18R

$$



USA.gov is the U.S. government's official web portal to all federal, state and local government web resources and services.